User: anonymous   Login
Location: Caltech
(34.1382°N, 118.1253°W)
Time: 21:24:05
(UTC-07:00)
Language:

NOAA 19 - Orbit

View from above orbital plane
View from above orbital plane
View from above satellite
View from above satellite

Ground track
Ground track

The orbit data is extracted from the following two-line orbital elements,

1 33591U 09005A   15185.45700685  .00000127  00000-0  94180-4 0  9996
2 33591 098.9907 135.3776 0014949 118.9231 241.3442 14.11951944329923
Epoch (UTC): 04 July 2015 10:58:05
Eccentricity: 0.0014949
inclination: 98.9907°
perigee height: 842 km
apogee height: 863 km
right ascension of ascending node: 135.3776°
argument of perigee: 118.9231°
revolutions per day: 14.11951944
mean anomaly at epoch: 241.3442°
orbit number at epoch: 32992

The dashed part of the orbit path shows where the satellite is in the earth's shadow,  

DLR